Location: München
(48.1371°N, 11.5754°E)
Time: 20:49:30
(UTC+02:00)

ISS - Visible Passes

Search period start: 26 May 2022 00:00
Search period end: 05 June 2022 00:00
Orbit: 414 x 421 km, 51.6° (Epoch: 26 May)

Date Brightness Start Highest point End Pass type
(mag) Time Alt. Az. Time Alt. Az. Time Alt. Az.
26 May -3.8 22:36:14 10° WNW 22:39:34 69° SSW 22:41:27 23° SE visible
27 May -1.1 00:14:04 10° WSW 00:14:21 11° WSW 00:14:21 11° WSW visible
27 May -3.7 21:48:05 10° WNW 21:51:28 85° NNE 21:54:50 10° ESE visible
27 May -2.1 23:25:19 10° W 23:27:55 21° SW 23:27:55 21° SW visible
28 May -2.7 22:36:55 10° W 22:39:57 31° SW 22:41:29 21° S visible
29 May -3.2 21:48:38 10° WNW 21:51:53 48° SSW 21:55:05 10° SE visible
30 May -1.4 22:38:09 10° WSW 22:40:02 14° SW 22:41:37 11° SSW visible
31 May -1.9 21:49:23 10° W 21:52:02 22° SW 21:54:40 10° SSE visible
